Regional Weather Roundup
Issued by NWS Boston, MA

Home | Current Version | Previous Version | Text Only | Print | Product List | Glossary On
Versions: 1 2 3 4 5 6 7 8 9 10 11 12 13 14 15 16 17 18 19 20 21 22 23 24 25 26 27 28 29 30 31 32 33 34 35 36 37 38 39 40 41 42 43 44 45 46 47 48 49 50
000
ASUS41 KBOX 052310
RWRBOX

REGIONAL WEATHER ROUNDUP
NATIONAL WEATHER SERVICE TAUNTON MA
700 PM EDT TUE MAY 05 2015

NOTE:  "FAIR" INDICATES FEW OR NO CLOUDS BELOW 12,000 FEET WITH NO
SIGNIFICANT WEATHER AND/OR OBSTRUCTIONS TO VISIBILITY.  THE FOLLOWING
OBSERVATION LOCATIONS DO NOT REPORT PRESENT WEATHER...PROVINCETOWN...
SMITHFIELD...BLOCK ISLAND...KEENE...AND OXFORD.

MAZALL-060000-
EASTERN MASSACHUSETTS

CITY           SKY/WX    TMP DP  RH WIND       PRES   REMARKS
BOSTON         MOCLDY    57  52  83 E13       30.17R
BEVERLY        MOCLDY    62  50  64 SE7       30.16R
LAWRENCE       MOCLDY    67  51  56 VRB5      30.17R
BEDFORD        MOCLDY    64  51  62 E10       30.15R
BLUE HILL        N/A     66  51  58 N10       30.14R
NORWOOD        CLOUDY    69  51  52 N9        30.14R
MARSHFIELD     MOCLDY    63  54  72 SE7       30.17R
PLYMOUTH       MOCLDY    66  54  65 S6        30.15R
TAUNTON        MOCLDY    68  52  56 SE7       30.14R
NEW BEDFORD    MOCLDY    63  52  67 SE8       30.15S
$$

MAZALL-060000-
CAPE COD AND THE ISLANDS

CITY           SKY/WX    TMP DP  RH WIND       PRES   REMARKS
FALMOUTH       MOCLDY    59  52  77 SE12      30.17R
HYANNIS        PTCLDY    58  50  75 SE7       30.15S
CHATHAM        PTCLDY    57  50  77 SE6       30.17F
PROVINCETOWN   MOCLDY    63  50  63 SE8       30.17R
NANTUCKET      CLEAR     56  47  71 SE10      30.17S
MARTHAS VNYRD  PTCLDY   N/A N/A N/A SE10      30.17R
$$

MAZALL-060000-
CENTRAL AND WESTERN MASSACHUSETTS

CITY           SKY/WX    TMP DP  RH WIND       PRES   REMARKS
WORCESTER      MOCLDY    71  28  20 N10       30.17R
FITCHBURG      MOCLDY    71  29  21 N7        30.16R
ORANGE         CLOUDY    70  32  24 N3        30.17R
SPRINGFIELD    MOCLDY    76  38  25 NE8       30.12S
WESTFIELD      MOCLDY    80  40  23 N6        30.12F
NORTH ADAMS    CLOUDY    70  41  34 NW5       30.17R
PITTSFIELD     MOCLDY    69  41  36 NW9       30.17R
$$

RIZALL-060000-
RHODE ISLAND

CITY           SKY/WX    TMP DP  RH WIND       PRES   REMARKS
PROVIDENCE     MOCLDY    65  50  58 S15       30.16R
NEWPORT        MOCLDY    59  50  72 S12       30.16S
BLOCK ISLAND   PTCLDY    59  48  67 S8        30.17F
SMITHFIELD     MOCLDY    70  48  46 SE7       30.14S
WESTERLY       MOCLDY    63  50  62 S7        30.16F
$$

CTZALL-060000-
CONNECTICUT

CITY           SKY/WX    TMP DP  RH WIND       PRES   REMARKS
BRADLEY INTL   MOCLDY    78  44  29 N8        30.11S
HARTFORD       PTCLDY    78  54  43 S6        30.11S
BRIDGEPORT     MOCLDY    72  53  51 S13       30.12S
DANBURY        PTCLDY    77  49  37 SW8       30.14S
GROTON         PTCLDY    64  50  60 SE6       30.15F
NEW HAVEN      MOCLDY    71  53  52 SE6       30.13S
CHESTER        NOT AVBL
MERIDEN        PTCLDY    77  53  43 S7        30.12F
WILLIMANTIC    MOCLDY    75  52  44 S9        30.14R
OXFORD         PTCLDY    75  54  46 S8        30.16S
$$

MEZ002-015-021-024-NHZ003-005-008-011-012-014-VTZ005-008-060000-
NORTHERN NEW ENGLAND

CITY           SKY/WX    TMP DP  RH WIND       PRES   REMARKS
PORTLAND ME    CLOUDY    64  38  38 S6        30.15R
BANGOR ME      MOCLDY    67  23  19 NW10      30.10R
CONCORD NH     CLOUDY    71  18  13 NW9       30.16S
MANCHESTER NH  CLOUDY    74  27  17 N6        30.14S
NASHUA NH      CLOUDY    73  28  19 N5        30.16S
PORTSMOUTH NH  MOCLDY    63  47  57 S8        30.15S
JAFFREY NH     CLOUDY    68  30  24 CALM      30.19S
KEENE NH       CLOUDY    70  34  26 MISG      30.18S
BURLINGTON VT  CLOUDY    67  30  25 N6        30.20S
MT. WASHINGTON MOCLDY    37  23  56 NW47G53     N/A  WCI  22
$$

NYZ052-076-060000-
EASTERN NEW YORK

CITY           SKY/WX    TMP DP  RH WIND       PRES   REMARKS
ALBANY         CLOUDY    72  36  26 NW12      30.17S
NEW YORK CITY  CLOUDY    71  51  49 S9        30.14S
$$

ANZALL-060000-
MARINE OBSERVATIONS

STATION/POSITION TIME  TEMP    WIND        PRES    VSBY  WAVE
                       AIR SEA DIR/SP/G                  HT/PER
                 (UTC) (F)     (DEG/KT/KT) (MB)    (MI)  (FT/S)
BOSTON BUOY      2250   51 49  100/  6/  8   N/A           1/10
BUZZARDS BAY     2200          150/ 14/ 15   N/A
NANTUCKET SOUND  2250   54 49  120/ 10/ 12   N/A           1
MASS BAY-STELLWA 2204   53 48  110/  6/  6   N/A    1 7/8  2/ 8
ISLE OF SHOALS   2200   61     140/ 16/ 16   N/A
S OF BLOCK IS    2208      48                N/A           4/ 6
$$

......................KEY.........................
  SKY/WX - SKY CONDITION/PRESENT WEATHER
  TMP    - TEMPERATURE IN FAHRENHEIT
  DWPT   - DEWPOINT IN FAHRENHEIT
  RH     - RELATIVE HUMIDITY IN PERCENT
  WIND   - DIRECTION AND SPEED IN MPH
  PRES   - MEAN SEA LEVEL PRESSURE IN INCHES OF HG
  WCI    - WIND CHILL INDEX
  VSB    - VISIBILITY IN MILES
  HX     - HEAT INDEX
  TC     - TEMPERATURE IN CELSIUS
  VRB    - VARIABLE WIND DIRECTION
  N/A    - NOT AVAILABLE


USA.gov is the U.S. government's official web portal to all federal, state and local government web resources and services.